Location: Asheville, NC
(35.6000°N, 82.5500°W)
Time: 14:21:58

XW-2D - Pass Details

Date: 08 January 2018
Orbit: 510 x 530 km, 97.5° (Epoch: 17 March)

Event Time Altitude Azimuth Distance (km) Brightness Sun altitude
Rises 18:41:00 0° 200° (SSW) 2,650 ? -13.4°
Reaches altitude 10° 18:43:35 10° 219° (SW) 1,768 ? -13.9°
Maximum altitude 18:46:20 19° 265° (W) 1,306 ? -14.5°
Drops below altitude 10° 18:49:06 10° 312° (NW) 1,780 ? -15.0°
Sets 18:51:43 0° 330° (NNW) 2,675 ? -15.5°
